,,Stat5,,Stat1,,Stat2,,Stat3,,Stat4,,Wind1,,Wind1,
time,status,PA1M_AVG,status,PR1M_SUM,status,RH1M_AVG,status,SR1M_AVG,status,TA1M_AVG,status,W1dAve1m,status,W1sAve1m,
2002-03-03, 00:00:00,VALID,917.491,VALID,0,VALID,96.3355,VALID,-0.0339617,VALID,21.0958,VALID,13,VALID,0.268092,
2002-03-03, 00:01:00,VALID,917.484,VALID,0,VALID,96.2719,VALID,-0.0679233,VALID,21.0729,VALID,26,VALID,0.2794,
2002-03-03, 00:02:00,VALID,917.488,VALID,0,VALID,96.2757,VALID,-0.0509425,VALID,21.0638,VALID,39,VALID,0.169471,
2002-03-03, 00:03:00,VALID,917.493,VALID,0,VALID,96.3024,VALID,-0.0509425,VALID,21.0737,VALID,40,VALID,0.00546875,
2002-03-03, 00:04:00,VALID,917.485,VALID,0,VALID,96.2732,VALID,-0.0679233,VALID,21.0638,VALID,40,VALID,0,
2002-03-03, 00:05:00,VALID,917.487,VALID,0,VALID,96.3393,VALID,-0.0169808,VALID,21.0635,VALID,40,VALID,0,
2002-03-03, 00:06:00,VALID,917.474,VALID,0,VALID,96.3876,VALID,-0.0339617,VALID,21.0603,VALID,40,VALID,0,
2002-03-03, 00:07:00,VALID,917.461,VALID,0,VALID,96.3698,VALID,-0.0339617,VALID,21.057,VALID,40,VALID,0.140039,
2002-03-03, 00:08:00,VALID,917.454,VALID,0,VALID,96.3444,VALID,-0.0849042,VALID,21.0444,VALID,57,VALID,0.474954,
2002-03-03, 00:09:00,VALID,917.429,VALID,0,VALID,96.394,VALID,-0.0169808,VALID,21.0379,VALID,60,VALID,0.560352,
2002-03-03, 00:10:00,VALID,917.42,VALID,0,VALID,96.4881,VALID,0.0169808,VALID,21.0164,VALID,67,VALID,0.622596,
2002-03-03, 00:11:00,VALID,917.39,VALID,0,VALID,96.6114,VALID,0.0339617,VALID,21.0137,VALID,83,VALID,0.677015,
2002-03-03, 00:12:00,VALID,917.364,VALID,0,VALID,96.7322,VALID,0.0679233,VALID,21.007,VALID,91,VALID,0.686883,
2002-03-03, 00:13:00,VALID,917.327,VALID,0,VALID,96.7742,VALID,0.0339617,VALID,20.9906,VALID,94,VALID,0.57793,
2002-03-03, 00:14:00,VALID,917.31,VALID,0,VALID,96.8568,VALID,0.0169808,VALID,20.9736,VALID,106,VALID,0.492969,
2002-03-03, 00:15:00,VALID,917.3,VALID,0,VALID,96.956,VALID,0.0509425,VALID,20.9873,VALID,92,VALID,0.349159,
2002-03-03, 00:16:00,VALID,917.305,VALID,0,VALID,97.0565,VALID,0.0679233,VALID,20.9836,VALID,55,VALID,0.482936,
2002-03-03, 00:17:00,VALID,917.301,VALID,0,VALID,97.0056,VALID,0.0169808,VALID,20.9949,VALID,41,VALID,0.570913,
2002-03-03, 00:18:00,VALID,917.312,VALID,0,VALID,97.0984,VALID,0,VALID,20.9976,VALID,30,VALID,0.638822,
2002-03-03, 00:19:00,VALID,917.296,VALID,0,VALID,97.0361,VALID,0.0339617,VALID,20.9903,VALID,28,VALID,0.525338,
2002-03-03, 00:20:00,VALID,917.294,VALID,0,VALID,96.9726,VALID,0,VALID,20.9876,VALID,15,VALID,0.559295,
2002-03-03, 00:21:00,VALID,917.28,VALID,0,VALID,96.9726,VALID,0.0849042,VALID,20.9844,VALID,15,VALID,0.534722,
2002-03-03, 00:22:00,VALID,917.271,VALID,0,VALID,96.9904,VALID,0.0339617,VALID,20.9645,VALID,17,VALID,0.512804,
2002-03-03, 00:23:00,VALID,917.261,VALID,0,VALID,97.0133,VALID,0.0509425,VALID,20.965,VALID,18,VALID,0.547852,
2002-03-03, 00:24:00,VALID,917.243,VALID,0,VALID,97.0705,VALID,0,VALID,20.9653,VALID,20,VALID,0.440456,
2002-03-03, 00:25:00,VALID,917.236,VALID,0,VALID,97.1086,VALID,-0.0849042,VALID,20.9668,VALID,26,VALID,0.573317,
2002-03-03, 00:26:00,VALID,917.232,VALID,0,VALID,97.1201,VALID,-0.0849042,VALID,20.9693,VALID,26,VALID,0.669613,
2002-03-03, 00:27:00,VALID,917.239,VALID,0,VALID,97.1875,VALID,-0.0509425,VALID,20.9889,VALID,37,VALID,0.462462,
2002-03-03, 00:28:00,VALID,917.24,VALID,0,VALID,97.2091,VALID,-0.0679233,VALID,21.0091,VALID,33,VALID,0.46254,
2002-03-03, 00:29:00,VALID,917.232,VALID,0,VALID,97.1697,VALID,-0.0679233,VALID,21.0153,VALID,11,VALID,0.682644,
2002-03-03, 00:30:00,VALID,917.226,VALID,0,VALID,97.2053,VALID,-0.0509425,VALID,21.0121,VALID,8,VALID,0.525391,
2002-03-03, 00:31:00,VALID,917.195,VALID,0,VALID,97.2409,VALID,-0.0339617,VALID,21.0247,VALID,7,VALID,0.351963,
2002-03-03, 00:32:00,VALID,917.171,VALID,0,VALID,97.2269,VALID,-0.0509425,VALID,21.0444,VALID,11,VALID,0.29523,
2002-03-03, 00:33:00,VALID,917.144,VALID,0,VALID,97.1938,VALID,-0.0679233,VALID,21.0312,VALID,351,VALID,0.649071,
2002-03-03, 00:34:00,VALID,917.123,VALID,0,VALID,97.1569,VALID,-0.0679233,VALID,21.028,VALID,307,VALID,0.694511,
2002-03-03, 00:35:00,VALID,917.081,VALID,0,VALID,97.1366,VALID,-0.101885,VALID,21.0215,VALID,274,VALID,0.307904,
2002-03-03, 00:36:00,VALID,917.039,VALID,0,VALID,97.0629,VALID,-0.0509425,VALID,21.0247,VALID,269,VALID,0.408253,
2002-03-03, 00:37:00,VALID,916.995,VALID,0,VALID,97.012,VALID,-0.0339617,VALID,20.9957,VALID,261,VALID,0.124794,
2002-03-03, 00:38:00,VALID,916.972,VALID,0,VALID,97.0018,VALID,-0.0849042,VALID,20.9927,VALID,261,VALID,0,
2002-03-03, 00:39:00,VALID,916.949,VALID,0,VALID,96.9688,VALID,-0.0509425,VALID,20.9733,VALID,277,VALID,0,
2002-03-03, 00:40:00,VALID,916.943,VALID,0,VALID,96.9446,VALID,-0.0509425,VALID,20.9666,VALID,288,VALID,0,
2002-03-03, 00:41:00,VALID,916.933,VALID,0,VALID,96.9001,VALID,-0.0169808,VALID,20.9469,VALID,288,VALID,0,
2002-03-03, 00:42:00,VALID,916.919,VALID,0,VALID,96.8772,VALID,-0.0169808,VALID,20.931,VALID,288,VALID,0,
2002-03-03, 00:43:00,VALID,916.914,VALID,0,VALID,96.8467,VALID,-0.0339617,VALID,20.9055,VALID,288,VALID,0,
2002-03-03, 00:44:00,VALID,916.906,VALID,0,VALID,96.8111,VALID,-0.0509425,VALID,20.86,VALID,288,VALID,0,
2002-03-03, 00:45:00,VALID,916.906,VALID,0,VALID,96.8289,VALID,-0.0679233,VALID,20.8505,VALID,288,VALID,0,
2002-03-03, 00:46:00,VALID,916.892,VALID,0,VALID,96.8492,VALID,-0.0509425,VALID,20.8344,VALID,288,VALID,0,
2002-03-03, 00:47:00,VALID,916.885,VALID,0,VALID,96.909,VALID,-0.0509425,VALID,20.8441,VALID,288,VALID,0,
2002-03-03, 00:48:00,VALID,916.876,VALID,0,VALID,96.8416,VALID,-0.0169808,VALID,20.808,VALID,288,VALID,0,
2002-03-03, 00:49:00,VALID,916.882,VALID,0,VALID,96.8123,VALID,-0.0679233,VALID,20.7792,VALID,288,VALID,0,
2002-03-03, 00:50:00,VALID,916.867,VALID,0,VALID,96.7907,VALID,-0.0169808,VALID,20.7635,VALID,288,VALID,0,
2002-03-03, 00:51:00,VALID,916.858,VALID,0,VALID,96.7233,VALID,-0.0679233,VALID,20.7283,VALID,288,VALID,0,
2002-03-03, 00:52:00,VALID,916.842,VALID,0,VALID,96.7284,VALID,-0.0509425,VALID,20.686,VALID,203,VALID,0.138477,
2002-03-03, 00:53:00,VALID,916.823,VALID,0,VALID,96.8403,VALID,-0.0849042,VALID,20.6763,VALID,189,VALID,0.00240385,
2002-03-03, 00:54:00,VALID,916.815,VALID,0,VALID,96.7233,VALID,-0.0509425,VALID,20.6206,VALID,189,VALID,0,
2002-03-03, 00:55:00,VALID,916.798,VALID,0,VALID,96.6102,VALID,-0.0679233,VALID,20.5893,VALID,188,VALID,0,
2002-03-03, 00:56:00,VALID,916.791,VALID,0,VALID,96.5885,VALID,-0.0849042,VALID,20.5245,VALID,188,VALID,0,
2002-03-03, 00:57:00,VALID,916.794,VALID,0,VALID,96.6966,VALID,-0.0849042,VALID,20.4887,VALID,188,VALID,0,
2002-03-03, 00:58:00,VALID,916.786,VALID,0,VALID,96.8047,VALID,-0.0339617,VALID,20.4956,VALID,188,VALID,0,
2002-03-03, 00:59:00,VALID,916.788,VALID,0,VALID,96.9306,VALID,-0.0169808,VALID,20.4984,VALID,188,VALID,0,
2002-03-03, 01:00:00,VALID,916.795,VALID,0,VALID,96.9929,VALID,-0.0679233,VALID,20.4825,VALID,188,VALID,0,
2002-03-03, 01:01:00,VALID,916.801,VALID,0,VALID,97.1379,VALID,-0.0849042,VALID,20.5053,VALID,197,VALID,0.281661,
2002-03-03, 01:02:00,VALID,916.802,VALID,0,VALID,97.3591,VALID,-0.0509425,VALID,20.5468,VALID,205,VALID,0.321259,
2002-03-03, 01:03:00,VALID,916.804,VALID,0,VALID,97.4151,VALID,-0.0339617,VALID,20.5826,VALID,207,VALID,0.111225,
2002-03-03, 01:04:00,VALID,916.802,VALID,0,VALID,97.3057,VALID,-0.0509425,VALID,20.5732,VALID,190,VALID,0.00234375,
2002-03-03, 01:05:00,VALID,916.794,VALID,0,VALID,97.3299,VALID,-0.0679233,VALID,20.5468,VALID,184,VALID,0,
2002-03-03, 01:06:00,VALID,916.796,VALID,0,VALID,97.3629,VALID,-0.0509425,VALID,20.5371,VALID,184,VALID,0,
2002-03-03, 01:07:00,VALID,916.801,VALID,0,VALID,97.3986,VALID,-0.0339617,VALID,20.5471,VALID,184,VALID,0,
2002-03-03, 01:08:00,VALID,916.801,VALID,0,VALID,97.4138,VALID,-0.0509425,VALID,20.5436,VALID,184,VALID,0,
2002-03-03, 01:09:00,VALID,916.807,VALID,0,VALID,97.4405,VALID,-0.0679233,VALID,20.5404,VALID,184,VALID,0,
2002-03-03, 01:10:00,VALID,916.795,VALID,0,VALID,97.4736,VALID,0.0169808,VALID,20.546,VALID,184,VALID,0,
2002-03-03, 01:11:00,VALID,916.786,VALID,0,VALID,97.5435,VALID,0,VALID,20.552,VALID,184,VALID,0,
2002-03-03, 01:12:00,VALID,916.772,VALID,0,VALID,97.6122,VALID,0.0169808,VALID,20.5886,VALID,184,VALID,0,
2002-03-03, 01:13:00,VALID,916.76,VALID,0,VALID,97.6198,VALID,0.0169808,VALID,20.6206,VALID,184,VALID,0,
2002-03-03, 01:14:00,VALID,916.749,VALID,0,VALID,97.5855,VALID,0.0339617,VALID,20.6266,VALID,184,VALID,0,
2002-03-03, 01:15:00,VALID,916.743,VALID,0,VALID,97.4647,VALID,0.0339617,VALID,20.6099,VALID,182,VALID,0,
2002-03-03, 01:16:00,VALID,916.759,VALID,0,VALID,97.4087,VALID,0.0339617,VALID,20.6139,VALID,24,VALID,0,
2002-03-03, 01:17:00,VALID,916.773,VALID,0,VALID,97.3922,VALID,0.0339617,VALID,20.601,VALID,24,VALID,0,
2002-03-03, 01:18:00,VALID,916.789,VALID,0,VALID,97.3769,VALID,0,VALID,20.6077,VALID,24,VALID,0,
2002-03-03, 01:19:00,VALID,916.792,VALID,0,VALID,97.3693,VALID,0,VALID,20.6104,VALID,24,VALID,0,
2002-03-03, 01:20:00,VALID,916.774,VALID,0,VALID,97.3795,VALID,0.0169808,VALID,20.6101,VALID,24,VALID,0,
2002-03-03, 01:21:00,VALID,916.764,VALID,0,VALID,97.4367,VALID,0.0339617,VALID,20.6395,VALID,24,VALID,0,
2002-03-03, 01:22:00,VALID,916.74,VALID,0,VALID,97.4965,VALID,0.0679233,VALID,20.6653,VALID,24,VALID,0,
2002-03-03, 01:23:00,VALID,916.731,VALID,0,VALID,97.5461,VALID,0.0169808,VALID,20.6947,VALID,24,VALID,0,
2002-03-03, 01:24:00,VALID,916.73,VALID,0,VALID,97.5537,VALID,0.0339617,VALID,20.7165,VALID,24,VALID,0,
2002-03-03, 01:25:00,VALID,916.725,VALID,0,VALID,97.5448,VALID,-0.0849042,VALID,20.7377,VALID,24,VALID,0,
2002-03-03, 01:26:00,VALID,916.734,VALID,0,VALID,97.5168,VALID,-0.0849042,VALID,20.7571,VALID,24,VALID,0,
2002-03-03, 01:27:00,VALID,916.741,VALID,0,VALID,97.4825,VALID,-0.0679233,VALID,20.7633,VALID,24,VALID,0,
2002-03-03, 01:28:00,VALID,916.733,VALID,0,VALID,97.4367,VALID,-0.0679233,VALID,20.7767,VALID,24,VALID,0,
2002-03-03, 01:29:00,VALID,916.732,VALID,0,VALID,97.4151,VALID,-0.0679233,VALID,20.7832,VALID,24,VALID,0,
2002-03-03, 01:30:00,VALID,916.728,VALID,0,VALID,97.41,VALID,-0.0339617,VALID,20.7929,VALID,24,VALID,0,
2002-03-03, 01:31:00,VALID,916.709,VALID,0,VALID,97.4278,VALID,-0.0679233,VALID,20.8088,VALID,24,VALID,0,
2002-03-03, 01:32:00,VALID,916.702,VALID,0,VALID,97.457,VALID,-0.101885,VALID,20.8451,VALID,24,VALID,0,
2002-03-03, 01:33:00,VALID,916.689,VALID,0,VALID,97.3757,VALID,-0.0679233,VALID,20.8572,VALID,24,VALID,0,
2002-03-03, 01:34:00,VALID,916.675,VALID,0,VALID,97.3629,VALID,-0.0849042,VALID,20.8605,VALID,24,VALID,0,
2002-03-03, 01:35:00,VALID,916.655,VALID,0,VALID,97.3896,VALID,-0.0849042,VALID,20.8769,VALID,153,VALID,0,
2002-03-03, 01:36:00,VALID,916.645,VALID,0,VALID,97.382,VALID,-0.101885,VALID,20.8931,VALID,224,VALID,0,
2002-03-03, 01:37:00,VALID,916.635,VALID,0,VALID,97.3515,VALID,-0.0679233,VALID,20.8958,VALID,237,VALID,0,
2002-03-03, 01:38:00,VALID,916.629,VALID,0,VALID,97.3591,VALID,-0.0169808,VALID,20.9057,VALID,238,VALID,0,
2002-03-03, 01:39:00,VALID,916.622,VALID,0,VALID,97.354,VALID,-0.0509425,VALID,20.9089,VALID,288,VALID,0,
2002-03-03, 01:40:00,VALID,916.607,VALID,0,VALID,97.3668,VALID,0.0679233,VALID,20.9168,VALID,14,VALID,0,
2002-03-03, 01:41:00,VALID,916.585,VALID,0,VALID,97.2981,VALID,0.0169808,VALID,20.927,VALID,19,VALID,0,
2002-03-03, 01:42:00,VALID,916.558,VALID,0,VALID,97.265,VALID,0.0339617,VALID,20.9235,VALID,19,VALID,0,
2002-03-03, 01:43:00,VALID,916.538,VALID,0,VALID,97.2549,VALID,0.0339617,VALID,20.9195,VALID,19,VALID,0,
2002-03-03, 01:44:00,VALID,916.521,VALID,0,VALID,97.1646,VALID,0.0849042,VALID,20.9203,VALID,19,VALID,0,
2002-03-03, 01:45:00,VALID,916.489,VALID,0,VALID,97.1735,VALID,0.0679233,VALID,20.92,VALID,15,VALID,0,
2002-03-03, 01:46:00,VALID,916.487,VALID,0,VALID,97.1391,VALID,0.0849042,VALID,20.9103,VALID,15,VALID,0,
2002-03-03, 01:47:00,VALID,916.494,VALID,0,VALID,97.1341,VALID,0.0339617,VALID,20.9074,VALID,15,VALID,0,
2002-03-03, 01:48:00,VALID,916.491,VALID,0,VALID,97.143,VALID,0.0509425,VALID,20.8939,VALID,15,VALID,0,
2002-03-03, 01:49:00,VALID,916.492,VALID,0,VALID,97.19,VALID,0.0849042,VALID,20.888,VALID,15,VALID,0,
2002-03-03, 01:50:00,VALID,916.472,VALID,0,VALID,97.2358,VALID,0.0849042,VALID,20.8875,VALID,15,VALID,0,
2002-03-03, 01:51:00,VALID,916.443,VALID,0,VALID,97.2688,VALID,0.0679233,VALID,20.8842,VALID,15,VALID,0,
2002-03-03, 01:52:00,VALID,916.418,VALID,0,VALID,97.246,VALID,0.0509425,VALID,20.878,VALID,15,VALID,0,
2002-03-03, 01:53:00,VALID,916.386,VALID,0,VALID,97.3006,VALID,0.0509425,VALID,20.878,VALID,15,VALID,0,
2002-03-03, 01:54:00,VALID,916.349,VALID,0,VALID,97.3795,VALID,0.101885,VALID,20.8974,VALID,353,VALID,0,
2002-03-03, 01:55:00,VALID,916.338,VALID,0,VALID,97.4125,VALID,-0.0169808,VALID,20.9092,VALID,353,VALID,0,
2002-03-03, 01:56:00,VALID,916.326,VALID,0,VALID,97.4481,VALID,-0.0509425,VALID,20.9151,VALID,353,VALID,0,
2002-03-03, 01:57:00,VALID,916.321,VALID,0,VALID,97.4774,VALID,0,VALID,20.9345,VALID,353,VALID,0,
2002-03-03, 01:58:00,VALID,916.308,VALID,0,VALID,97.457,VALID,0,VALID,20.9345,VALID,353,VALID,0,
2002-03-03, 01:59:00,VALID,916.309,VALID,0,VALID,97.4545,VALID,0,VALID,20.9278,VALID,353,VALID,0,
2002-03-03, 02:00:00,VALID,916.288,VALID,0,VALID,97.4647,VALID,0,VALID,20.9246,VALID,353,VALID,0,
2002-03-03, 02:01:00,VALID,916.277,VALID,0,VALID,97.452,VALID,-0.0339617,VALID,20.9281,VALID,353,VALID,0,
2002-03-03, 02:02:00,VALID,916.248,VALID,0,VALID,97.3986,VALID,-0.0169808,VALID,20.9154,VALID,353,VALID,0,
2002-03-03, 02:03:00,VALID,916.221,VALID,0,VALID,97.3998,VALID,0,VALID,20.9116,VALID,353,VALID,0,
2002-03-03, 02:04:00,VALID,916.196,VALID,0,VALID,97.4405,VALID,-0.0169808,VALID,20.9157,VALID,4,VALID,0,
2002-03-03, 02:05:00,VALID,916.161,VALID,0,VALID,97.5066,VALID,-0.0169808,VALID,20.9184,VALID,12,VALID,0,
2002-03-03, 02:06:00,VALID,916.14,VALID,0,VALID,97.5575,VALID,-0.0509425,VALID,20.9507,VALID,12,VALID,0,
2002-03-03, 02:07:00,VALID,916.117,VALID,0,VALID,97.5257,VALID,0,VALID,20.9542,VALID,12,VALID,0,
2002-03-03, 02:08:00,VALID,916.108,VALID,0,VALID,97.4977,VALID,0,VALID,20.9504,VALID,12,VALID,0,
2002-03-03, 02:09:00,VALID,916.088,VALID,0,VALID,97.485,VALID,-0.0169808,VALID,20.9507,VALID,12,VALID,0,
2002-03-03, 02:10:00,VALID,916.092,VALID,0,VALID,97.5219,VALID,0,VALID,20.9472,VALID,12,VALID,0,
2002-03-03, 02:11:00,VALID,916.079,VALID,0,VALID,97.5168,VALID,0,VALID,20.9499,VALID,12,VALID,0,
2002-03-03, 02:12:00,VALID,916.069,VALID,0,VALID,97.4837,VALID,0,VALID,20.9472,VALID,12,VALID,0,
2002-03-03, 02:13:00,VALID,916.056,VALID,0,VALID,97.5079,VALID,-0.0169808,VALID,20.9469,VALID,12,VALID,0,
2002-03-03, 02:14:00,VALID,916.034,VALID,0,VALID,97.4927,VALID,-0.0169808,VALID,20.9539,VALID,330,VALID,0,
2002-03-03, 02:15:00,VALID,916.024,VALID,0,VALID,97.4761,VALID,-0.0169808,VALID,20.9442,VALID,276,VALID,0,
2002-03-03, 02:16:00,VALID,916.019,VALID,0,VALID,97.4583,VALID,0,VALID,20.941,VALID,261,VALID,0,
2002-03-03, 02:17:00,VALID,916.038,VALID,0,VALID,97.4914,VALID,0,VALID,20.9378,VALID,15,VALID,0,
2002-03-03, 02:18:00,VALID,916.05,VALID,0,VALID,97.5194,VALID,-0.0339617,VALID,20.9472,VALID,20,VALID,0,
2002-03-03, 02:19:00,VALID,916.071,VALID,0,VALID,97.485,VALID,-0.0169808,VALID,20.9574,VALID,29,VALID,0,
2002-03-03, 02:20:00,VALID,916.07,VALID,0,VALID,97.4596,VALID,0,VALID,20.9345,VALID,12,VALID,0.149523,
2002-03-03, 02:21:00,VALID,916.093,VALID,0,VALID,97.4647,VALID,0,VALID,20.941,VALID,8,VALID,0.613387,
2002-03-03, 02:22:00,VALID,916.1,VALID,0,VALID,97.3744,VALID,0,VALID,20.9216,VALID,351,VALID,0.433388,
2002-03-03, 02:23:00,VALID,916.098,VALID,0,VALID,97.3019,VALID,0,VALID,20.8893,VALID,345,VALID,0.440341,
2002-03-03, 02:24:00,VALID,916.08,VALID,0,VALID,97.2803,VALID,0,VALID,20.8726,VALID,19,VALID,0.387541,
2002-03-03, 02:25:00,VALID,916.063,VALID,0,VALID,97.3248,VALID,-0.0169808,VALID,20.8731,VALID,21,VALID,0.232617,
2002-03-03, 02:26:00,VALID,916.058,VALID,0,VALID,97.3057,VALID,0,VALID,20.8565,VALID,21,VALID,0.559211,
2002-03-03, 02:27:00,VALID,916.055,VALID,0,VALID,97.3261,VALID,-0.0169808,VALID,20.8667,VALID,11,VALID,0.449836,
2002-03-03, 02:28:00,VALID,916.046,VALID,0,VALID,97.3566,VALID,0,VALID,20.8796,VALID,4,VALID,0.194111,
2002-03-03, 02:29:00,VALID,916.054,VALID,0,VALID,97.3261,VALID,-0.0169808,VALID,20.8861,VALID,16,VALID,0.525841,
2002-03-03, 02:30:00,VALID,916.051,VALID,0,VALID,97.3362,VALID,-0.0169808,VALID,20.8888,VALID,21,VALID,0.590461,
2002-03-03, 02:31:00,VALID,916.061,VALID,0,VALID,97.3286,VALID,0,VALID,20.9022,VALID,22,VALID,0.503906,
2002-03-03, 02:32:00,VALID,916.074,VALID,0,VALID,97.2549,VALID,-0.0509425,VALID,20.9055,VALID,6,VALID,0.689844,
2002-03-03, 02:33:00,VALID,916.064,VALID,0,VALID,97.1404,VALID,0,VALID,20.8729,VALID,19,VALID,0.396205,
2002-03-03, 02:34:00,VALID,916.064,VALID,0,VALID,97.1341,VALID,-0.0339617,VALID,20.8694,VALID,18,VALID,0.215372,
2002-03-03, 02:35:00,VALID,916.058,VALID,0,VALID,97.1048,VALID,0,VALID,20.8796,VALID,24,VALID,0.440173,
2002-03-03, 02:36:00,VALID,916.042,VALID,0,VALID,97.0743,VALID,-0.0169808,VALID,20.8699,VALID,19,VALID,0.119792,
2002-03-03, 02:37:00,VALID,916.027,VALID,0,VALID,97.0946,VALID,-0.0169808,VALID,20.8699,VALID,19,VALID,0.130642,
2002-03-03, 02:38:00,VALID,916.034,VALID,0,VALID,97.1048,VALID,0,VALID,20.8731,VALID,19,VALID,0.217311,
2002-03-03, 02:39:00,VALID,916.024,VALID,0,VALID,97.1201,VALID,-0.0169808,VALID,20.8761,VALID,19,VALID,0.00267857,
2002-03-03, 02:40:00,VALID,916.01,VALID,0,VALID,97.0768,VALID,-0.0339617,VALID,20.8799,VALID,19,VALID,0,
2002-03-03, 02:41:00,VALID,916.006,VALID,0,VALID,97.0222,VALID,-0.0169808,VALID,20.85,VALID,15,VALID,0.000651042,
2002-03-03, 02:42:00,VALID,915.977,VALID,0,VALID,96.9179,VALID,-0.0169808,VALID,20.8145,VALID,312,VALID,0.0720017,
2002-03-03, 02:43:00,VALID,915.971,VALID,0,VALID,96.853,VALID,-0.0339617,VALID,20.7921,VALID,312,VALID,0,
2002-03-03, 02:44:00,VALID,915.955,VALID,0,VALID,96.8619,VALID,-0.0169808,VALID,20.7725,VALID,312,VALID,0.246094,
2002-03-03, 02:45:00,VALID,915.933,VALID,0,VALID,96.923,VALID,-0.0169808,VALID,20.7663,VALID,312,VALID,0,
2002-03-03, 02:46:00,VALID,915.935,VALID,0,VALID,96.9916,VALID,0,VALID,20.7829,VALID,312,VALID,0.0456731,
2002-03-03, 02:47:00,VALID,915.932,VALID,0,VALID,97.0044,VALID,0,VALID,20.7754,VALID,308,VALID,0.233574,
2002-03-03, 02:48:00,VALID,915.925,VALID,0,VALID,97.0209,VALID,-0.0509425,VALID,20.7727,VALID,304,VALID,0.108319,
2002-03-03, 02:49:00,VALID,915.923,VALID,0,VALID,97.0641,VALID,0,VALID,20.7794,VALID,269,VALID,0.283008,
2002-03-03, 02:50:00,VALID,915.904,VALID,0,VALID,97.0489,VALID,0,VALID,20.7663,VALID,243,VALID,0.735294,
2002-03-03, 02:51:00,VALID,915.885,VALID,0,VALID,96.937,VALID,-0.0339617,VALID,20.7213,VALID,247,VALID,0.318164,
2002-03-03, 02:52:00,VALID,915.873,VALID,0,VALID,97.012,VALID,-0.0169808,VALID,20.6989,VALID,243,VALID,0.148838,
2002-03-03, 02:53:00,VALID,915.858,VALID,0,VALID,96.9573,VALID,0,VALID,20.6631,VALID,222,VALID,0.178454,
2002-03-03, 02:54:00,VALID,915.85,VALID,0,VALID,96.9408,VALID,0,VALID,20.6276,VALID,220,VALID,0.202919,
2002-03-03, 02:55:00,VALID,915.858,VALID,0,VALID,96.9446,VALID,-0.0339617,VALID,20.606,VALID,262,VALID,0.108984,
2002-03-03, 02:56:00,VALID,915.889,VALID,0,VALID,96.9815,VALID,-0.101885,VALID,20.5899,VALID,349,VALID,0.552734,
2002-03-03, 02:57:00,VALID,915.907,VALID,0,VALID,96.7933,VALID,-0.0679233,VALID,20.5285,VALID,295,VALID,0.955729,
2002-03-03, 02:58:00,VALID,915.933,VALID,0,VALID,96.7462,VALID,-0.101885,VALID,20.5056,VALID,278,VALID,0.648643,
2002-03-03, 02:59:00,VALID,915.948,VALID,0,VALID,96.7844,VALID,-0.0339617,VALID,20.4959,VALID,279,VALID,0.606971,
2002-03-03, 03:00:00,VALID,915.956,VALID,0,VALID,96.7984,VALID,-0.0679233,VALID,20.4929,VALID,263,VALID,0.299079,
2002-03-03, 03:01:00,VALID,915.954,VALID,0,VALID,96.8187,VALID,-0.0849042,VALID,20.5096,VALID,251,VALID,0.444679,
2002-03-03, 03:02:00,VALID,915.955,VALID,0,VALID,96.8123,VALID,-0.0509425,VALID,20.5029,VALID,234,VALID,0.161258,
2002-03-03, 03:03:00,VALID,915.958,VALID,0,VALID,96.8301,VALID,-0.0509425,VALID,20.4962,VALID,234,VALID,0.0208333,
2002-03-03, 03:04:00,VALID,915.956,VALID,0,VALID,96.8301,VALID,-0.0509425,VALID,20.5064,VALID,234,VALID,0,
2002-03-03, 03:05:00,VALID,915.949,VALID,0,VALID,96.8314,VALID,-0.0339617,VALID,20.4996,VALID,234,VALID,0.0128906,
2002-03-03, 03:06:00,VALID,915.963,VALID,0,VALID,96.7602,VALID,-0.0509425,VALID,20.5128,VALID,234,VALID,0.115921,
2002-03-03, 03:07:00,VALID,915.95,VALID,0,VALID,96.6534,VALID,-0.0679233,VALID,20.4797,VALID,234,VALID,0,
2002-03-03, 03:08:00,VALID,915.945,VALID,0,VALID,96.6661,VALID,-0.101885,VALID,20.4611,VALID,234,VALID,0,
2002-03-03, 03:09:00,VALID,915.933,VALID,0,VALID,96.6826,VALID,-0.101885,VALID,20.4482,VALID,234,VALID,0,
2002-03-03, 03:10:00,VALID,915.939,VALID,0,VALID,96.647,VALID,0.0169808,VALID,20.4305,VALID,234,VALID,0,
2002-03-03, 03:11:00,VALID,915.924,VALID,0,VALID,96.6013,VALID,0,VALID,20.4009,VALID,234,VALID,0,
2002-03-03, 03:12:00,VALID,915.92,VALID,0,VALID,96.5224,VALID,0.0169808,VALID,20.392,VALID,291,VALID,0.270508,
2002-03-03, 03:13:00,VALID,915.916,VALID,0,VALID,96.5364,VALID,0.0679233,VALID,20.3562,VALID,33,VALID,0.28125,
2002-03-03, 03:14:00,VALID,915.897,VALID,0,VALID,96.572,VALID,0.0169808,VALID,20.3239,VALID,33,VALID,0.0269326,
2002-03-03, 03:15:00,VALID,915.889,VALID,0,VALID,96.6203,VALID,0,VALID,20.2951,VALID,33,VALID,0,
2002-03-03, 03:16:00,VALID,915.868,VALID,0,VALID,96.7322,VALID,0.0169808,VALID,20.2819,VALID,33,VALID,0,
2002-03-03, 03:17:00,VALID,915.873,VALID,0,VALID,96.8263,VALID,0.0509425,VALID,20.2817,VALID,33,VALID,0,
2002-03-03, 03:18:00,VALID,915.873,VALID,0,VALID,96.7805,VALID,0.0169808,VALID,20.2752,VALID,38,VALID,0.208333,
2002-03-03, 03:19:00,VALID,915.89,VALID,0,VALID,96.5275,VALID,0,VALID,20.2305,VALID,50,VALID,0.51028,
2002-03-03, 03:20:00,VALID,915.893,VALID,0,VALID,96.4283,VALID,0.0339617,VALID,20.1651,VALID,81,VALID,0.608073,
2002-03-03, 03:21:00,VALID,915.884,VALID,0,VALID,96.9331,VALID,0.0339617,VALID,20.1659,VALID,88,VALID,0.596706,
2002-03-03, 03:22:00,VALID,915.867,VALID,0,VALID,97.045,VALID,0.0169808,VALID,20.188,VALID,100,VALID,0.314453,
2002-03-03, 03:23:00,VALID,915.838,VALID,0,VALID,97.2256,VALID,0.0339617,VALID,20.2046,VALID,127,VALID,0.487459,
2002-03-03, 03:24:00,VALID,915.812,VALID,0,VALID,97.2104,VALID,0.0169808,VALID,20.2173,VALID,144,VALID,0.288218,
2002-03-03, 03:25:00,VALID,915.804,VALID,0,VALID,97.1824,VALID,0,VALID,20.2143,VALID,144,VALID,0.223558,
2002-03-03, 03:26:00,VALID,915.789,VALID,0,VALID,97.2434,VALID,0,VALID,20.2181,VALID,144,VALID,0.00460737,
2002-03-03, 03:27:00,VALID,915.772,VALID,0,VALID,97.1824,VALID,-0.0169808,VALID,20.2017,VALID,144,VALID,0.101768,
2002-03-03, 03:28:00,VALID,915.764,VALID,0,VALID,97.1938,VALID,0,VALID,20.1984,VALID,144,VALID,0.531039,
2002-03-03, 03:29:00,VALID,915.754,VALID,0,VALID,97.2421,VALID,0.0339617,VALID,20.2019,VALID,144,VALID,0.511418,
2002-03-03, 03:30:00,VALID,915.743,VALID,0,VALID,97.3502,VALID,0,VALID,20.1917,VALID,144,VALID,0.448902,
2002-03-03, 03:31:00,VALID,915.726,VALID,0,VALID,97.4342,VALID,0.0169808,VALID,20.2051,VALID,144,VALID,0.354096,
2002-03-03, 03:32:00,VALID,915.707,VALID,0,VALID,97.4977,VALID,0,VALID,20.2084,VALID,144,VALID,0.346989,
2002-03-03, 03:33:00,VALID,915.716,VALID,0,VALID,97.5893,VALID,0.0339617,VALID,20.2173,VALID,144,VALID,0.194878,
2002-03-03, 03:34:00,VALID,915.698,VALID,0,VALID,97.6872,VALID,0.0679233,VALID,20.2437,VALID,144,VALID,0.0724609,
2002-03-03, 03:35:00,VALID,915.703,VALID,0,VALID,97.7406,VALID,0.0169808,VALID,20.2593,VALID,144,VALID,0,
2002-03-03, 03:36:00,VALID,915.708,VALID,0,VALID,97.7584,VALID,0.0339617,VALID,20.2822,VALID,144,VALID,0,
2002-03-03, 03:37:00,VALID,915.706,VALID,0,VALID,97.7864,VALID,0.0339617,VALID,20.3026,VALID,144,VALID,0,
2002-03-03, 03:38:00,VALID,915.711,VALID,0,VALID,97.7648,VALID,0.0339617,VALID,20.2953,VALID,144,VALID,0,